Location: Newark
(25.4800°N, 85.7200°E)
Time: 18:06:12
(UTC+00:00)

Transit 4A - Pass Details

Date: 31 August 2019
Orbit: 866 x 978 km, 66.8° (Epoch: 13 October)

Event Time Altitude Azimuth Distance (km) Brightness Sun altitude
Rises 21:26:01 0° 309° (NW) 3,545 - -32.9°
Reaches altitude 10° 21:30:06 10° 282° (WNW) 2,573 - -32.1°
Maximum altitude 21:32:35 13° 257° (WSW) 2,359 - -31.6°
Drops below altitude 10° 21:35:03 10° 232° (SW) 2,540 - -31.2°
Sets 21:39:04 0° 205° (SSW) 3,456 - -30.4°
